M I D A S
Marine Information and Data Acquisition System
Tripno 1147 of the Zeeleeuw from 2006-08-17 06:46:29 to 2006-08-17 13:01:26
Back to CruiseResearch ActivitiesStationsMapUnderway DataData graphs

EquipmentUnitsComment
TimeDGPSUTC
LatitudeDGPSDM.mWGS84
LongitudeDGPSDM.mWGS84
HeadingGyrodeg 
SOGDGPSknotsSpeed over ground
COGDGPSdegCourse over ground
DepthEcho soundermeters200 kHz
Missing or incorrect values are displayed as -999
Navigation data collected by the RV Zeeleeuw from 2006-08-17 06:44:46 to 2006-08-17 13:12:28
                                                                                    Next 1000 lines
Time Latitude Longitude Heading SOG COG Depth
2006-08-17 06:44:56 51°13.601 2°56.094 105.7 0.7 289 8.3
2006-08-17 06:45:01 51°13.601 2°56.091 105.6 1.2 287 8.3
2006-08-17 06:45:06 51°13.602 2°56.088 105.7 1.4 289 8
2006-08-17 06:45:11 51°13.603 2°56.084 106 1.8 288 8.5
2006-08-17 06:45:16 51°13.604 2°56.078 106.5 2.4 288 -999
2006-08-17 06:45:21 51°13.605 2°56.072 106.7 3 287 -999
2006-08-17 06:45:26 51°13.607 2°56.065 106.6 3.2 288 -999
2006-08-17 06:45:31 51°13.608 2°56.058 105.8 3.3 286 -999
2006-08-17 06:45:36 51°13.609 2°56.051 105.6 3.3 286 -999
2006-08-17 06:45:42 51°13.611 2°56.042 105.7 3.4 285 -999
2006-08-17 06:45:46 51°13.612 2°56.036 106 3.5 286 -999
2006-08-17 06:45:52 51°13.613 2°56.027 107.1 3.6 285 -999
2006-08-17 06:45:56 51°13.614 2°56.021 108 3.7 286 -999
2006-08-17 06:46:02 51°13.616 2°56.011 109.1 3.8 287 -999
2006-08-17 06:46:06 51°13.618 2°56.005 110.5 3.8 288 -999
2006-08-17 06:46:11 51°13.62 2°55.997 111.9 3.9 290 -999
2006-08-17 06:46:16 51°13.622 2°55.989 113.9 4 291 -999
2006-08-17 06:46:22 51°13.624 2°55.979 115.3 4 293 -999
2006-08-17 06:46:26 51°13.626 2°55.972 117.1 4.2 293 -999
2006-08-17 06:46:31 51°13.629 2°55.963 118.7 4.3 295 -999
2006-08-17 06:46:36 51°13.631 2°55.955 120 4.4 296 -999
2006-08-17 06:46:42 51°13.635 2°55.944 121.5 4.5 298 -999
2006-08-17 06:46:46 51°13.638 2°55.937 122.6 4.6 299 -999
2006-08-17 06:46:51 51°13.641 2°55.928 124.1 4.7 301 -999
2006-08-17 06:46:56 51°13.645 2°55.919 125.6 4.7 302 -999
2006-08-17 06:47:02 51°13.649 2°55.909 126.7 4.7 303 -999
2006-08-17 06:47:06 51°13.652 2°55.902 127.4 4.7 305 -999
2006-08-17 06:47:11 51°13.656 2°55.894 128.2 4.6 305 -999
2006-08-17 06:47:16 51°13.659 2°55.887 128.7 4.3 306 -999
2006-08-17 06:47:21 51°13.663 2°55.879 129 4.4 306 -999
2006-08-17 06:47:26 51°13.667 2°55.871 128.9 4.5 307 -999
2006-08-17 06:47:31 51°13.67 2°55.863 128.7 4.6 306 11.7
2006-08-17 06:47:36 51°13.674 2°55.854 128.3 4.8 307 -999
2006-08-17 06:47:41 51°13.678 2°55.845 127.7 4.9 306 -999
2006-08-17 06:47:46 51°13.683 2°55.837 126.8 4.8 306 -999
2006-08-17 06:47:52 51°13.687 2°55.827 125.7 4.5 305 -999
2006-08-17 06:47:56 51°13.69 2°55.821 124.9 4.6 305 -999
2006-08-17 06:48:01 51°13.693 2°55.812 123.5 4.5 304 -999
2006-08-17 06:48:06 51°13.697 2°55.804 122.1 4.5 302 -999
2006-08-17 06:48:12 51°13.701 2°55.794 120.4 4.5 302 -999
2006-08-17 06:48:16 51°13.703 2°55.787 119 4.4 300 -999
2006-08-17 06:48:22 51°13.706 2°55.777 117.1 4.1 299 -999
2006-08-17 06:48:26 51°13.708 2°55.771 115.4 4 297 -999
2006-08-17 06:48:31 51°13.71 2°55.764 113.5 3.9 296 -999
2006-08-17 06:48:36 51°13.712 2°55.756 111.4 3.8 294 -999
2006-08-17 06:48:42 51°13.715 2°55.747 109.1 3.7 292 -999
2006-08-17 06:48:46 51°13.716 2°55.741 106.8 3.6 291 15.6
2006-08-17 06:48:51 51°13.717 2°55.734 104.5 3.3 288 -999
2006-08-17 06:48:56 51°13.719 2°55.728 102.4 3.2 287 -999
2006-08-17 06:49:02 51°13.72 2°55.72 100.4 3 286 -999
2006-08-17 06:49:06 51°13.721 2°55.716 98.5 2.8 285 -999
2006-08-17 06:49:11 51°13.721 2°55.713 96.6 2.2 286 13.5
2006-08-17 06:49:16 51°13.722 2°55.711 92.7 1.2 288 13.4
2006-08-17 06:49:21 51°13.723 2°55.712 87.8 0.7 339 13.3
2006-08-17 06:49:26 51°13.724 2°55.714 80.3 1 46 13.4
2006-08-17 06:49:31 51°13.726 2°55.717 71.1 1.7 47 13.2
2006-08-17 06:49:36 51°13.727 2°55.719 60.9 1.8 48 12.9
2006-08-17 06:49:41 51°13.729 2°55.721 52.3 1.6 37 12.9
2006-08-17 06:49:46 51°13.731 2°55.723 47 1.4 39 13
2006-08-17 06:49:50 51°13.732 2°55.724 43.5 1.3 28 12.8
2006-08-17 06:49:56 51°13.733 2°55.725 40.3 1 33 12.8
2006-08-17 06:50:01 51°13.733 2°55.725 36.6 0.5 14 12.8
2006-08-17 06:50:05 51°13.733 2°55.724 33 0.3 230 12.9
2006-08-17 06:50:11 51°13.731 2°55.723 29.8 0.7 220 12.7
2006-08-17 06:50:16 51°13.73 2°55.721 27.2 1.2 211 12.8
2006-08-17 06:50:21 51°13.728 2°55.72 24.6 1.5 208 12.8
2006-08-17 06:50:26 51°13.726 2°55.718 21.7 1.7 204 -999
2006-08-17 06:50:32 51°13.723 2°55.716 19.3 1.6 202 -999
2006-08-17 06:50:36 51°13.722 2°55.716 17.8 1.5 201 -999
2006-08-17 06:50:42 51°13.72 2°55.714 16.9 1.3 202 -999
2006-08-17 06:50:46 51°13.719 2°55.714 15.7 0.8 208 -999
2006-08-17 06:50:51 51°13.72 2°55.714 12.9 0.1 301 -999
2006-08-17 06:50:56 51°13.721 2°55.713 7.7 0.7 342 -999
2006-08-17 06:51:02 51°13.722 2°55.713 2.4 0.9 354 -999
2006-08-17 06:51:06 51°13.724 2°55.712 357.8 1.1 346 -999
2006-08-17 06:51:11 51°13.725 2°55.712 353.9 1.2 349 -999
2006-08-17 06:51:16 51°13.728 2°55.711 350.5 1.5 344 -999
2006-08-17 06:51:22 51°13.73 2°55.71 347.9 1.6 345 -999
2006-08-17 06:51:26 51°13.732 2°55.708 345.7 1.8 341 13.1
2006-08-17 06:51:30 51°13.734 2°55.707 344.3 2.1 342 12.9
2006-08-17 06:51:36 51°13.738 2°55.705 342.7 2.3 339 12.8
2006-08-17 06:51:41 51°13.741 2°55.703 341.2 2.4 340 12.5
2006-08-17 06:51:47 51°13.745 2°55.7 339.8 2.7 337 -999
2006-08-17 06:51:50 51°13.748 2°55.699 338.6 2.8 337 12.4
2006-08-17 06:51:56 51°13.752 2°55.695 337.8 2.9 336 12.2
2006-08-17 06:52:01 51°13.756 2°55.693 337.4 3.1 335 12.3
2006-08-17 06:52:06 51°13.761 2°55.689 337.1 3.4 335 12.3
2006-08-17 06:52:11 51°13.765 2°55.686 337 3.5 335 12.4
2006-08-17 06:52:16 51°13.77 2°55.683 337 3.7 335 12.4
2006-08-17 06:52:21 51°13.775 2°55.679 337.3 3.8 335 12.4
2006-08-17 06:52:26 51°13.779 2°55.675 337.3 3.9 335 12.4
2006-08-17 06:52:31 51°13.785 2°55.671 336.8 4 334 12.4
2006-08-17 06:52:36 51°13.79 2°55.667 336 4.1 333 12.6
2006-08-17 06:52:41 51°13.795 2°55.663 335.4 4.1 333 12.6
2006-08-17 06:52:46 51°13.8 2°55.659 335.3 4.2 333 12.6
2006-08-17 06:52:51 51°13.806 2°55.655 335.3 4.3 333 12.7
2006-08-17 06:52:56 51°13.811 2°55.65 335.7 4.4 333 12.8
2006-08-17 06:53:01 51°13.816 2°55.646 336.1 4.4 334 12.8
2006-08-17 06:53:06 51°13.822 2°55.642 336.7 4.5 334 12.9
2006-08-17 06:53:11 51°13.828 2°55.638 337.3 4.5 335 13
2006-08-17 06:53:16 51°13.834 2°55.633 337.7 4.6 335 12.9
2006-08-17 06:53:21 51°13.84 2°55.629 338 4.7 336 12.8
2006-08-17 06:53:26 51°13.845 2°55.625 338 4.7 335 12.8
2006-08-17 06:53:31 51°13.851 2°55.62 338 4.7 335 12.6
2006-08-17 06:53:35 51°13.856 2°55.616 337.7 4.8 335 12.5
2006-08-17 06:53:41 51°13.863 2°55.611 337.4 4.8 335 12.2
2006-08-17 06:53:46 51°13.869 2°55.606 337.1 4.9 334 12.1
2006-08-17 06:53:51 51°13.875 2°55.601 336.7 4.9 334 12.1
2006-08-17 06:53:56 51°13.881 2°55.596 336.4 4.9 334 12.2
2006-08-17 06:54:01 51°13.888 2°55.592 336.1 4.9 333 12.6
2006-08-17 06:54:06 51°13.894 2°55.587 336 5 334 12.7
2006-08-17 06:54:11 51°13.9 2°55.582 336 5 334 12.8
2006-08-17 06:54:16 51°13.906 2°55.577 336 5 334 12.8
2006-08-17 06:54:21 51°13.913 2°55.572 336.2 5.1 334 13.2
2006-08-17 06:54:26 51°13.919 2°55.567 336.6 5.1 334 12.7
2006-08-17 06:54:31 51°13.926 2°55.563 336.8 5.1 334 13
2006-08-17 06:54:36 51°13.932 2°55.558 337.1 5.1 335 13.2
2006-08-17 06:54:41 51°13.938 2°55.553 337.3 5.1 335 13.2
2006-08-17 06:54:46 51°13.945 2°55.548 337.4 5.1 335 13
2006-08-17 06:54:51 51°13.951 2°55.543 337.5 5.1 335 13
2006-08-17 06:54:56 51°13.958 2°55.539 337.6 5.1 334 13.1
2006-08-17 06:55:00 51°13.963 2°55.535 337.8 5.1 336 12.9
2006-08-17 06:55:06 51°13.971 2°55.53 338 5.1 336 12.8
2006-08-17 06:55:10 51°13.976 2°55.526 338.2 5.1 336 12.7
2006-08-17 06:55:16 51°13.984 2°55.52 338.3 5.1 335 12.6
2006-08-17 06:55:21 51°13.99 2°55.515 338.2 5.1 335 12.6
2006-08-17 06:55:26 51°13.997 2°55.511 337.5 5.1 334 12.6
2006-08-17 06:55:31 51°14.003 2°55.506 337 5.1 335 12.6
2006-08-17 06:55:35 51°14.008 2°55.502 336.9 5.1 335 12.5
2006-08-17 06:55:41 51°14.016 2°55.496 337.3 5.2 335 12.4
2006-08-17 06:55:46 51°14.023 2°55.492 337.8 5.2 336 12.4
2006-08-17 06:55:50 51°14.028 2°55.488 338.2 5.2 335 12.4
2006-08-17 06:55:56 51°14.036 2°55.482 338.3 5.3 336 12.4
2006-08-17 06:56:01 51°14.043 2°55.476 338.1 5.5 335 12.3
2006-08-17 06:56:06 51°14.05 2°55.471 337.5 5.6 334 12.4
2006-08-17 06:56:10 51°14.056 2°55.467 337.2 5.8 335 12.4
2006-08-17 06:56:16 51°14.065 2°55.46 337.2 5.9 335 12.4
2006-08-17 06:56:21 51°14.073 2°55.454 337.4 6.2 335 12.3
2006-08-17 06:56:26 51°14.081 2°55.448 338 6.4 335 12.3
2006-08-17 06:56:31 51°14.09 2°55.442 337.7 6.5 335 12.3
2006-08-17 06:56:36 51°14.098 2°55.435 337.1 6.6 334 12.3
2006-08-17 06:56:41 51°14.106 2°55.428 336.3 6.8 333 12.3
2006-08-17 06:56:46 51°14.115 2°55.421 335.2 6.9 332 12.3
2006-08-17 06:56:51 51°14.123 2°55.414 334.2 7 331 12.3
2006-08-17 06:56:56 51°14.132 2°55.406 333.8 7.1 331 12.3
2006-08-17 06:57:01 51°14.141 2°55.398 334 7.2 332 12.2
2006-08-17 06:57:06 51°14.149 2°55.391 334.7 7.2 332 12.2
2006-08-17 06:57:11 51°14.158 2°55.383 335 7.2 331 12.2
2006-08-17 06:57:16 51°14.167 2°55.375 334.6 7.3 331 12.2
2006-08-17 06:57:21 51°14.175 2°55.367 333.5 7.3 329 12.2
2006-08-17 06:57:26 51°14.184 2°55.358 331.9 7.3 328 12.3
2006-08-17 06:57:31 51°14.193 2°55.349 330.3 7.4 326 12.3
2006-08-17 06:57:35 51°14.199 2°55.341 328.7 7.4 325 -999
2006-08-17 06:57:41 51°14.209 2°55.329 326.9 7.4 323 12.3
2006-08-17 06:57:46 51°14.218 2°55.32 326.1 7.5 323 12.3
2006-08-17 06:57:51 51°14.226 2°55.309 325.9 7.5 323 12.3
2006-08-17 06:57:56 51°14.234 2°55.299 325.6 7.6 322 12.3
2006-08-17 06:58:01 51°14.243 2°55.288 325.2 7.7 321 12.3
2006-08-17 06:58:06 51°14.251 2°55.277 324.3 7.8 320 12.3
2006-08-17 06:58:11 51°14.259 2°55.265 322.5 7.9 318 12.3
2006-08-17 06:58:16 51°14.267 2°55.253 320.2 8 316 12.3
2006-08-17 06:58:21 51°14.275 2°55.24 318.1 8.1 314 12.3
2006-08-17 06:58:26 51°14.283 2°55.227 317.2 8.2 314 12.4
2006-08-17 06:58:31 51°14.291 2°55.214 317.5 8.2 314 12.4
2006-08-17 06:58:36 51°14.299 2°55.2 317.4 8.3 314 12.4
2006-08-17 06:58:40 51°14.305 2°55.19 316.7 8.3 314 12.4
2006-08-17 06:58:46 51°14.315 2°55.173 316.1 8.4 313 12.4
2006-08-17 06:58:51 51°14.323 2°55.16 315.7 8.5 313 12.5
2006-08-17 06:58:56 51°14.331 2°55.146 316.2 8.8 314 12.4
2006-08-17 06:59:01 51°14.34 2°55.131 316.9 9 313 12.4
2006-08-17 06:59:06 51°14.349 2°55.116 317.1 9.2 312 12.3
2006-08-17 06:59:11 51°14.357 2°55.1 315.1 9.3 310 12.4
2006-08-17 06:59:16 51°14.365 2°55.083 312.5 9.4 308 12.5
2006-08-17 06:59:21 51°14.372 2°55.066 309.4 9.5 305 12.7
2006-08-17 06:59:25 51°14.378 2°55.052 307 9.6 304 12.8
2006-08-17 06:59:31 51°14.388 2°55.031 306 9.7 305 12.7
2006-08-17 06:59:36 51°14.395 2°55.013 306.7 9.7 305 12.7
2006-08-17 06:59:41 51°14.404 2°54.996 307.5 9.8 307 12.7
2006-08-17 06:59:46 51°14.412 2°54.978 307.8 9.9 306 12.9
2006-08-17 06:59:51 51°14.419 2°54.959 305.4 10 303 12.8
2006-08-17 06:59:56 51°14.427 2°54.941 304.1 10.2 305 12.6
2006-08-17 07:00:00 51°14.435 2°54.927 305.5 10.3 308 12.8
2006-08-17 07:00:06 51°14.446 2°54.906 306.7 10.3 309 12.6
2006-08-17 07:00:11 51°14.457 2°54.891 310.7 10.5 317 12.6
2006-08-17 07:00:15 51°14.467 2°54.879 314.4 10.6 322 12.3
2006-08-17 07:00:21 51°14.481 2°54.863 318.6 10.6 324 12.1
2006-08-17 07:00:25 51°14.491 2°54.852 320.8 10.8 325 12
2006-08-17 07:00:31 51°14.506 2°54.836 322.2 10.8 326 11.9
2006-08-17 07:00:36 51°14.519 2°54.823 323.4 10.9 328 11.8
2006-08-17 07:00:41 51°14.532 2°54.811 324.4 10.9 328 11.8
2006-08-17 07:00:46 51°14.545 2°54.798 325.7 11 329 11.8
2006-08-17 07:00:51 51°14.558 2°54.786 327.1 11 330 11.6
2006-08-17 07:00:56 51°14.572 2°54.775 328 11.1 331 11.6
2006-08-17 07:01:01 51°14.585 2°54.763 328.7 11.1 331 11.6
2006-08-17 07:01:06 51°14.599 2°54.752 329.1 11.1 332 11.5
2006-08-17 07:01:10 51°14.61 2°54.743 329.5 11.1 333 11.5
2006-08-17 07:01:16 51°14.626 2°54.729 330.2 11.1 333 11.4
2006-08-17 07:01:21 51°14.64 2°54.718 330.5 11.2 333 11.4
2006-08-17 07:01:26 51°14.654 2°54.707 330.8 11.2 333 11.4
2006-08-17 07:01:31 51°14.668 2°54.696 330.9 11.2 333 11.5
2006-08-17 07:01:36 51°14.682 2°54.684 330.2 11.2 333 11.4
2006-08-17 07:01:41 51°14.695 2°54.672 328.3 11.1 330 11.4
2006-08-17 07:01:46 51°14.708 2°54.659 326 11.1 328 11.4
2006-08-17 07:01:51 51°14.72 2°54.645 322.9 11 325 11.5
2006-08-17 07:01:56 51°14.732 2°54.63 321.4 11 324 11.4
2006-08-17 07:02:01 51°14.744 2°54.615 319.3 10.9 322 11.3
2006-08-17 07:02:06 51°14.756 2°54.599 317.1 11 321 11.3
2006-08-17 07:02:11 51°14.768 2°54.584 316.2 11 320 11.4
2006-08-17 07:02:16 51°14.779 2°54.568 315.9 11.1 320 11.3
2006-08-17 07:02:21 51°14.791 2°54.552 315.5 11.1 319 11.3
2006-08-17 07:02:26 51°14.803 2°54.535 314.8 11.2 319 11.4
2006-08-17 07:02:31 51°14.815 2°54.519 314.7 11.3 319 11.3
2006-08-17 07:02:36 51°14.827 2°54.502 315 11.4 320 11.3
2006-08-17 07:02:41 51°14.839 2°54.486 315.4 11.4 320 11.3
2006-08-17 07:02:46 51°14.852 2°54.469 315.7 11.7 320 11.2
2006-08-17 07:02:50 51°14.862 2°54.455 315.6 11.7 319 11.2
2006-08-17 07:02:56 51°14.876 2°54.434 315.2 11.8 319 11.2
2006-08-17 07:03:01 51°14.889 2°54.417 315 11.9 319 11.3
2006-08-17 07:03:06 51°14.901 2°54.4 315.6 11.9 319 11.1
2006-08-17 07:03:10 51°14.911 2°54.385 315.4 11.9 317 11.2
2006-08-17 07:03:16 51°14.924 2°54.362 311.9 11.8 312 11.1
2006-08-17 07:03:21 51°14.934 2°54.342 307.9 11.8 310 11
2006-08-17 07:03:26 51°14.944 2°54.321 305.6 11.7 309 10.9
2006-08-17 07:03:31 51°14.954 2°54.301 304.7 11.7 308 10.9
2006-08-17 07:03:36 51°14.963 2°54.279 303.5 11.7 305 10.9
2006-08-17 07:03:41 51°14.972 2°54.258 302.1 11.7 304 10.9
2006-08-17 07:03:46 51°14.981 2°54.236 300.8 11.7 303 10.8
2006-08-17 07:03:51 51°14.989 2°54.214 300.1 11.7 302 10.8
2006-08-17 07:03:56 51°14.997 2°54.191 299.6 11.7 301 10.8
2006-08-17 07:04:01 51°15.006 2°54.169 299.1 11.8 300 10.9
2006-08-17 07:04:05 51°15.012 2°54.151 298.6 11.8 300 10.9
2006-08-17 07:04:11 51°15.022 2°54.123 298.3 11.8 299 10.8
2006-08-17 07:04:16 51°15.03 2°54.101 298.8 11.8 300 10.8
2006-08-17 07:04:21 51°15.038 2°54.078 299 11.9 299 10.9
2006-08-17 07:04:25 51°15.044 2°54.06 298.4 11.9 299 10.9
2006-08-17 07:04:31 51°15.054 2°54.032 298.2 11.9 299 11
2006-08-17 07:04:36 51°15.062 2°54.009 298.7 11.9 300 11
2006-08-17 07:04:41 51°15.07 2°53.986 299 11.9 299 11
2006-08-17 07:04:45 51°15.077 2°53.968 299.1 11.9 300 11
2006-08-17 07:04:51 51°15.087 2°53.94 299.3 12 300 11
2006-08-17 07:04:55 51°15.093 2°53.922 299.4 11.9 300 11.1
2006-08-17 07:05:01 51°15.103 2°53.895 299.1 11.9 300 11.2
2006-08-17 07:05:06 51°15.111 2°53.871 298.7 12 299 11.3
2006-08-17 07:05:11 51°15.119 2°53.848 298.3 12 299 11.3
2006-08-17 07:05:16 51°15.128 2°53.826 298.2 12 300 11.3
2006-08-17 07:05:21 51°15.137 2°53.803 299.1 12 302 11.4
2006-08-17 07:05:26 51°15.146 2°53.781 300.6 12.1 303 11.4
2006-08-17 07:05:31 51°15.156 2°53.759 302.4 12.1 304 11.5
2006-08-17 07:05:36 51°15.165 2°53.737 303.8 12.1 305 11.5
2006-08-17 07:05:41 51°15.175 2°53.715 304.3 12.1 306 11.5
2006-08-17 07:05:45 51°15.183 2°53.698 304.6 12.1 306 11.7
2006-08-17 07:05:51 51°15.195 2°53.672 304.9 12.1 307 11.7
2006-08-17 07:05:56 51°15.205 2°53.651 305 12.1 307 11.7
2006-08-17 07:06:01 51°15.215 2°53.63 305.3 12.1 306 11.7
2006-08-17 07:06:06 51°15.225 2°53.608 304.9 12 306 11.9
2006-08-17 07:06:11 51°15.234 2°53.586 304.3 12 305 11.9
2006-08-17 07:06:16 51°15.244 2°53.565 303.8 12 305 12
2006-08-17 07:06:21 51°15.254 2°53.544 303.7 12 306 11.9
2006-08-17 07:06:26 51°15.264 2°53.522 303.7 12 306 12
2006-08-17 07:06:31 51°15.273 2°53.501 304.1 12 306 12.1
2006-08-17 07:06:36 51°15.283 2°53.479 304.2 11.9 306 12
2006-08-17 07:06:41 51°15.293 2°53.458 304 11.9 305 12.1
2006-08-17 07:06:46 51°15.302 2°53.436 303.8 11.9 305 12.1
2006-08-17 07:06:50 51°15.309 2°53.419 303.3 11.9 305 12.2
2006-08-17 07:06:56 51°15.32 2°53.393 302.7 11.9 304 12.2
2006-08-17 07:07:01 51°15.329 2°53.371 301.8 11.8 302 12.2
2006-08-17 07:07:06 51°15.337 2°53.348 300.3 11.7 301 12.2
2006-08-17 07:07:11 51°15.345 2°53.326 299 11.7 300 12.3
2006-08-17 07:07:15 51°15.351 2°53.307 297.8 11.7 298 12.3
2006-08-17 07:07:21 51°15.36 2°53.28 296.6 11.7 297 12.3
2006-08-17 07:07:26 51°15.367 2°53.256 295.4 11.7 296 12.4
2006-08-17 07:07:31 51°15.374 2°53.233 293.7 11.7 294 12.4
2006-08-17 07:07:36 51°15.38 2°53.209 293.1 11.7 294 12.5
2006-08-17 07:07:41 51°15.386 2°53.186 291.6 11.7 293 12.5
2006-08-17 07:07:46 51°15.392 2°53.162 290.7 11.6 292 12.5
2006-08-17 07:07:51 51°15.398 2°53.138 290.1 11.6 291 12.6
2006-08-17 07:07:56 51°15.404 2°53.114 289.6 11.6 291 12.5
2006-08-17 07:08:01 51°15.41 2°53.09 289.5 11.6 291 12.6
2006-08-17 07:08:06 51°15.416 2°53.066 289.2 11.6 291 12.6
2006-08-17 07:08:11 51°15.421 2°53.042 289.6 11.6 292 12.7
2006-08-17 07:08:16 51°15.428 2°53.019 289.8 11.7 292 12.7
2006-08-17 07:08:21 51°15.435 2°52.995 291 11.7 294 12.8
2006-08-17 07:08:26 51°15.441 2°52.972 292.5 11.6 295 12.8
2006-08-17 07:08:31 51°15.449 2°52.949 293.9 11.7 296 12.8
2006-08-17 07:08:36 51°15.456 2°52.926 295 11.7 297 12.9
2006-08-17 07:08:41 51°15.464 2°52.903 295.6 11.7 297 12.9
2006-08-17 07:08:46 51°15.471 2°52.88 296.4 11.7 299 12.9
2006-08-17 07:08:51 51°15.479 2°52.857 296.4 11.7 298 12.9
2006-08-17 07:08:56 51°15.487 2°52.835 296.3 11.7 299 12.9
2006-08-17 07:09:01 51°15.495 2°52.812 296.7 11.7 299 13
2006-08-17 07:09:06 51°15.503 2°52.789 296.8 11.8 299 13.1
2006-08-17 07:09:11 51°15.51 2°52.766 296.4 11.7 298 13.2
2006-08-17 07:09:16 51°15.518 2°52.743 295.6 11.7 297 13.2
2006-08-17 07:09:21 51°15.525 2°52.72 294.8 11.7 296 13.2
2006-08-17 07:09:26 51°15.531 2°52.697 293.6 11.7 295 13.2
2006-08-17 07:09:31 51°15.538 2°52.674 293.2 11.6 295 13.3
2006-08-17 07:09:35 51°15.543 2°52.655 292.6 11.6 293 13.4
2006-08-17 07:09:41 51°15.55 2°52.626 291.6 11.6 292 13.4
2006-08-17 07:09:46 51°15.556 2°52.602 290.3 11.6 291 13.5
2006-08-17 07:09:51 51°15.562 2°52.579 289.2 11.6 290 13.5
2006-08-17 07:09:56 51°15.567 2°52.555 288.5 11.5 290 13.5
2006-08-17 07:10:01 51°15.572 2°52.53 287.7 11.6 289 13.6
2006-08-17 07:10:06 51°15.577 2°52.506 287.1 11.5 289 13.6
2006-08-17 07:10:11 51°15.582 2°52.482 286.9 11.6 288 13.7
2006-08-17 07:10:16 51°15.587 2°52.458 286.6 11.6 288 13.7
2006-08-17 07:10:21 51°15.592 2°52.434 286.9 11.6 289 13.8
2006-08-17 07:10:26 51°15.598 2°52.41 287.9 11.6 291 13.7
2006-08-17 07:10:31 51°15.604 2°52.386 288.3 11.6 290 13.8
2006-08-17 07:10:36 51°15.609 2°52.362 288.3 11.5 290 13.9
2006-08-17 07:10:41 51°15.615 2°52.338 288.2 11.5 290 13.8
2006-08-17 07:10:46 51°15.62 2°52.314 287.9 11.5 290 13.9
2006-08-17 07:10:51 51°15.625 2°52.29 288 11.5 290 13.9
2006-08-17 07:10:56 51°15.631 2°52.266 288.1 11.6 289 14
2006-08-17 07:11:01 51°15.637 2°52.242 288.3 11.6 290 14
2006-08-17 07:11:06 51°15.643 2°52.218 289.5 11.6 292 14.1
2006-08-17 07:11:11 51°15.65 2°52.195 291.4 11.7 294 14.1
2006-08-17 07:11:16 51°15.657 2°52.171 292.5 11.6 295 14
2006-08-17 07:11:21 51°15.663 2°52.148 293.1 11.7 295 14.1
2006-08-17 07:11:26 51°15.671 2°52.125 293.8 11.7 296 14.2
2006-08-17 07:11:31 51°15.678 2°52.101 294.3 11.7 296 14.2
2006-08-17 07:11:36 51°15.685 2°52.078 294 11.7 295 14.2
2006-08-17 07:11:41 51°15.692 2°52.055 293.9 11.7 296 14.2
2006-08-17 07:11:46 51°15.699 2°52.031 293.9 11.7 296 14.2
2006-08-17 07:11:51 51°15.706 2°52.008 294.3 11.6 296 14.3
2006-08-17 07:11:56 51°15.713 2°51.985 294.3 11.6 296 14.3
2006-08-17 07:12:01 51°15.72 2°51.962 293.7 11.5 295 14.4
2006-08-17 07:12:06 51°15.726 2°51.939 293.1 11.5 294 14.4
2006-08-17 07:12:11 51°15.732 2°51.915 292 11.5 293 14.4
2006-08-17 07:12:16 51°15.738 2°51.892 290.9 11.4 291 14.4
2006-08-17 07:12:21 51°15.743 2°51.868 289.6 11.4 291 14.5
2006-08-17 07:12:26 51°15.748 2°51.844 288.5 11.4 290 14.5
2006-08-17 07:12:30 51°15.753 2°51.825 288 11.4 289 14.5
2006-08-17 07:12:36 51°15.759 2°51.797 287.4 11.4 289 14.6
2006-08-17 07:12:41 51°15.764 2°51.773 287.4 11.4 289 14.6
2006-08-17 07:12:46 51°15.77 2°51.75 287.8 11.4 290 14.5
2006-08-17 07:12:51 51°15.775 2°51.726 288.1 11.4 291 14.5
2006-08-17 07:12:56 51°15.781 2°51.702 288.8 11.5 291 14.5
2006-08-17 07:13:01 51°15.788 2°51.679 290.3 11.5 293 14.6
2006-08-17 07:13:06 51°15.794 2°51.656 291.6 11.5 294 14.5
2006-08-17 07:13:11 51°15.801 2°51.633 292.4 11.5 295 14.6
2006-08-17 07:13:16 51°15.808 2°51.61 292.9 11.5 295 14.6
2006-08-17 07:13:21 51°15.814 2°51.587 292.6 11.5 294 14.6
2006-08-17 07:13:26 51°15.82 2°51.564 291.7 11.5 293 14.7
2006-08-17 07:13:31 51°15.826 2°51.54 291.4 11.5 293 14.7
2006-08-17 07:13:36 51°15.832 2°51.517 290.6 11.5 292 14.7
2006-08-17 07:13:41 51°15.838 2°51.493 289.7 11.4 291 14.7
2006-08-17 07:13:46 51°15.844 2°51.469 289.1 11.5 291 14.7
2006-08-17 07:13:51 51°15.849 2°51.446 288.8 11.5 291 14.7
2006-08-17 07:13:56 51°15.854 2°51.422 288.3 11.5 290 14.7
2006-08-17 07:14:01 51°15.86 2°51.398 287.7 11.4 289 14.7
2006-08-17 07:14:06 51°15.865 2°51.374 287.1 11.4 288 14.7
2006-08-17 07:14:11 51°15.87 2°51.35 286.6 11.4 288 14.8
2006-08-17 07:14:16 51°15.874 2°51.326 286.4 11.4 288 14.8
2006-08-17 07:14:21 51°15.879 2°51.302 285.9 11.4 287 14.8
2006-08-17 07:14:26 51°15.883 2°51.278 285.6 11.4 287 14.7
2006-08-17 07:14:31 51°15.888 2°51.254 285.7 11.4 287 14.8
2006-08-17 07:14:36 51°15.893 2°51.229 285.7 11.4 287 14.8
2006-08-17 07:14:41 51°15.897 2°51.205 285.6 11.4 287 14.8
2006-08-17 07:14:46 51°15.902 2°51.181 285.6 11.5 286 14.8
2006-08-17 07:14:51 51°15.907 2°51.156 285.4 11.5 287 14.7
2006-08-17 07:14:56 51°15.912 2°51.132 285.9 11.5 288 14.7
2006-08-17 07:15:01 51°15.916 2°51.108 286 11.5 288 14.8
2006-08-17 07:15:05 51°15.92 2°51.089 285.9 11.5 287 14.7
2006-08-17 07:15:11 51°15.926 2°51.06 285.8 11.5 287 14.8
2006-08-17 07:15:16 51°15.93 2°51.035 285.6 11.5 287 14.8
2006-08-17 07:15:21 51°15.934 2°51.011 285.2 11.4 286 14.8
2006-08-17 07:15:26 51°15.939 2°50.987 284.8 11.5 286 14.8
2006-08-17 07:15:31 51°15.943 2°50.962 284.3 11.5 285 14.8
2006-08-17 07:15:36 51°15.948 2°50.938 284.2 11.5 286 14.7
2006-08-17 07:15:41 51°15.952 2°50.914 284.9 11.4 287 14.8
2006-08-17 07:15:46 51°15.957 2°50.89 285.2 11.4 287 14.9
2006-08-17 07:15:51 51°15.961 2°50.865 285.4 11.4 287 14.8
2006-08-17 07:15:56 51°15.966 2°50.842 285.9 11.4 288 14.8
2006-08-17 07:16:01 51°15.971 2°50.817 286 11.4 287 14.7
2006-08-17 07:16:06 51°15.975 2°50.793 285.9 11.4 287 14.6
2006-08-17 07:16:11 51°15.98 2°50.769 285.4 11.4 286 14.6
2006-08-17 07:16:16 51°15.984 2°50.745 285.4 11.4 286 14.5
2006-08-17 07:16:21 51°15.988 2°50.721 284.7 11.4 285 14.4
2006-08-17 07:16:26 51°15.992 2°50.696 284.5 11.4 285 14.2
2006-08-17 07:16:31 51°15.996 2°50.672 284.5 11.4 286 14.1
2006-08-17 07:16:36 51°16.001 2°50.647 284.4 11.4 285 13.9
2006-08-17 07:16:41 51°16.005 2°50.623 284.1 11.4 285 13.8
2006-08-17 07:16:46 51°16.009 2°50.599 284.4 11.4 286 13.6
2006-08-17 07:16:51 51°16.013 2°50.574 284.5 11.4 285 13.4
2006-08-17 07:16:56 51°16.017 2°50.55 284.1 11.4 285 13.2
2006-08-17 07:17:01 51°16.021 2°50.526 283.6 11.4 284 12.9
2006-08-17 07:17:06 51°16.025 2°50.501 283.2 11.4 284 12.7
2006-08-17 07:17:11 51°16.029 2°50.477 283.1 11.4 284 12.4
2006-08-17 07:17:16 51°16.032 2°50.452 283 11.4 283 12.4
2006-08-17 07:17:21 51°16.035 2°50.427 282 11.4 281 12.2
2006-08-17 07:17:26 51°16.038 2°50.403 280.8 11.4 280 12.1
2006-08-17 07:17:31 51°16.041 2°50.378 279.7 11.4 280 12.1
2006-08-17 07:17:36 51°16.043 2°50.353 279.4 11.4 281 12
2006-08-17 07:17:41 51°16.047 2°50.328 279.7 11.5 281 12
2006-08-17 07:17:46 51°16.05 2°50.303 280.2 11.5 282 11.9
2006-08-17 07:17:51 51°16.054 2°50.279 281.5 11.5 283 11.9
2006-08-17 07:17:56 51°16.058 2°50.254 282.9 11.5 285 11.8
2006-08-17 07:18:01 51°16.062 2°50.229 283.4 11.5 284 11.9
2006-08-17 07:18:06 51°16.067 2°50.205 283.9 11.6 285 11.9
2006-08-17 07:18:11 51°16.071 2°50.18 285.1 11.5 286 11.9
2006-08-17 07:18:16 51°16.075 2°50.155 284.8 11.5 286 12
2006-08-17 07:18:21 51°16.079 2°50.131 284 11.4 285 12.1
2006-08-17 07:18:26 51°16.083 2°50.107 283.8 11.4 285 12.1
2006-08-17 07:18:31 51°16.087 2°50.082 283.7 11.4 285 12.2
2006-08-17 07:18:36 51°16.092 2°50.058 283.8 11.4 285 12.4
2006-08-17 07:18:41 51°16.096 2°50.033 284.1 11.4 285 12.4
2006-08-17 07:18:46 51°16.1 2°50.009 284.5 11.4 286 12.5
2006-08-17 07:18:51 51°16.104 2°49.985 284.3 11.4 285 12.5
2006-08-17 07:18:56 51°16.109 2°49.961 284.5 11.4 286 12.6
2006-08-17 07:19:01 51°16.113 2°49.936 284.7 11.4 285 12.7
2006-08-17 07:19:06 51°16.117 2°49.912 284.5 11.4 286 12.7
2006-08-17 07:19:11 51°16.121 2°49.887 284 11.4 285 12.8
2006-08-17 07:19:16 51°16.125 2°49.863 283.7 11.4 285 12.8
2006-08-17 07:19:21 51°16.129 2°49.839 283.3 11.4 284 12.9
2006-08-17 07:19:26 51°16.133 2°49.814 283.3 11.4 284 12.9
2006-08-17 07:19:31 51°16.137 2°49.79 283.1 11.4 284 12.9
2006-08-17 07:19:36 51°16.141 2°49.765 283.6 11.4 285 13
2006-08-17 07:19:41 51°16.145 2°49.741 283.7 11.4 284 13
2006-08-17 07:19:46 51°16.149 2°49.716 283.7 11.4 284 13.1
2006-08-17 07:19:51 51°16.153 2°49.692 283.7 11.4 284 13.1
2006-08-17 07:19:56 51°16.157 2°49.667 283.3 11.4 283 13.1
2006-08-17 07:20:01 51°16.16 2°49.643 283.3 11.4 284 13.2
2006-08-17 07:20:06 51°16.164 2°49.619 283.2 11.4 284 13.2
2006-08-17 07:20:11 51°16.169 2°49.594 283.3 11.5 285 13.3
2006-08-17 07:20:16 51°16.173 2°49.569 283.6 11.5 285 13.3
2006-08-17 07:20:21 51°16.176 2°49.545 283.4 11.4 284 13.3
2006-08-17 07:20:26 51°16.179 2°49.52 282.6 11.4 283 13.3
2006-08-17 07:20:31 51°16.182 2°49.496 280.8 11.4 281 13.4
2006-08-17 07:20:36 51°16.185 2°49.471 279.7 11.3 280 13.5
2006-08-17 07:20:41 51°16.188 2°49.447 278.7 11.3 280 13.6
2006-08-17 07:20:46 51°16.19 2°49.422 278.5 11.4 280 13.7
2006-08-17 07:20:51 51°16.193 2°49.397 278.9 11.4 281 13.8
2006-08-17 07:20:56 51°16.197 2°49.373 280.2 11.5 283 13.9
2006-08-17 07:21:01 51°16.201 2°49.348 281.8 11.4 284 14
2006-08-17 07:21:06 51°16.206 2°49.323 283.3 11.5 285 14.1
2006-08-17 07:21:11 51°16.21 2°49.299 284.7 11.5 287 14.1
2006-08-17 07:21:16 51°16.215 2°49.275 286.3 11.5 289 14.2
2006-08-17 07:21:21 51°16.221 2°49.251 287.1 11.5 289 14.5
2006-08-17 07:21:26 51°16.226 2°49.227 287.8 11.6 290 14.6
2006-08-17 07:21:31 51°16.232 2°49.203 287.9 11.5 289 14.7
2006-08-17 07:21:36 51°16.236 2°49.179 287.1 11.3 288 15.1
2006-08-17 07:21:41 51°16.241 2°49.156 285.9 11.3 288 15.3
2006-08-17 07:21:46 51°16.245 2°49.132 284.8 11.3 286 15.5
2006-08-17 07:21:51 51°16.249 2°49.108 284.2 11.2 286 15.7
2006-08-17 07:21:56 51°16.253 2°49.084 283.8 11.2 285 15.8
2006-08-17 07:22:01 51°16.257 2°49.061 283.4 11.1 286 16
2006-08-17 07:22:06 51°16.262 2°49.037 283.6 11.1 286 16.2
2006-08-17 07:22:11 51°16.265 2°49.013 283.7 11.1 285 16.3
2006-08-17 07:22:16 51°16.269 2°48.99 282.6 11.1 284 16.4
2006-08-17 07:22:21 51°16.272 2°48.966 281.4 11 283 16.5
2006-08-17 07:22:26 51°16.275 2°48.942 280.7 11 282 16.7
2006-08-17 07:22:31 51°16.278 2°48.918 280 11 282 16.9
2006-08-17 07:22:36 51°16.281 2°48.894 279.4 11 280 17
2006-08-17 07:22:41 51°16.284 2°48.87 279 11 281 17.1
2006-08-17 07:22:46 51°16.287 2°48.846 278.7 11 281 17.2
2006-08-17 07:22:51 51°16.289 2°48.822 279.1 11 281 17.2
2006-08-17 07:22:55 51°16.292 2°48.803 279.4 11 281 17.2
2006-08-17 07:23:01 51°16.296 2°48.775 279.9 11.1 282 17.3
2006-08-17 07:23:06 51°16.299 2°48.751 280.4 11.1 282 17.2
2006-08-17 07:23:11 51°16.303 2°48.727 281.3 11.1 284 17.3
2006-08-17 07:23:16 51°16.307 2°48.704 282 11.1 285 17.3
2006-08-17 07:23:21 51°16.311 2°48.68 283.2 11.1 285 17.3
2006-08-17 07:23:26 51°16.316 2°48.656 284 11.1 287 17.3
2006-08-17 07:23:31 51°16.32 2°48.633 284.8 11.2 287 17.3
2006-08-17 07:23:36 51°16.325 2°48.609 285.2 11.2 287 17.3
2006-08-17 07:23:41 51°16.33 2°48.585 285.6 11.2 288 17.2
2006-08-17 07:23:46 51°16.335 2°48.562 285.9 11.2 288 17.2
2006-08-17 07:23:51 51°16.34 2°48.538 286.1 11.2 288 17.2
2006-08-17 07:23:56 51°16.344 2°48.515 286.2 11.2 288 17
2006-08-17 07:24:01 51°16.349 2°48.491 285.4 11.2 287 17.1
2006-08-17 07:24:06 51°16.353 2°48.468 285.5 11.2 287 17
2006-08-17 07:24:11 51°16.358 2°48.444 285.2 11.1 286 16.8
2006-08-17 07:24:16 51°16.362 2°48.42 284.3 11.2 285 16.7
2006-08-17 07:24:21 51°16.365 2°48.396 283 11.1 283 16.6
2006-08-17 07:24:26 51°16.369 2°48.372 281.6 11.1 283 16.5
2006-08-17 07:24:31 51°16.372 2°48.348 280.8 11.1 283 16.3
2006-08-17 07:24:36 51°16.375 2°48.324 280.8 11.1 283 16.2
2006-08-17 07:24:41 51°16.379 2°48.301 280.1 11.1 281 16
2006-08-17 07:24:46 51°16.381 2°48.277 279.8 11.1 282 15.6
2006-08-17 07:24:51 51°16.385 2°48.253 279.5 11.1 282 15.3
2006-08-17 07:24:56 51°16.388 2°48.229 279.8 11 281 15
2006-08-17 07:25:01 51°16.391 2°48.205 279.8 11.1 283 14.9
2006-08-17 07:25:06 51°16.395 2°48.181 280 11.1 282 14.7
2006-08-17 07:25:11 51°16.399 2°48.157 281 11.2 285 14.5
2006-08-17 07:25:16 51°16.403 2°48.133 282.5 11.2 285 14.1
2006-08-17 07:25:21 51°16.407 2°48.11 283.8 11.2 288 13.6
2006-08-17 07:25:26 51°16.413 2°48.086 284.6 11.2 287 13.1
2006-08-17 07:25:31 51°16.418 2°48.063 285.8 11.2 289 12.9
2006-08-17 07:25:36 51°16.423 2°48.039 286.2 11.2 289 12.8
2006-08-17 07:25:41 51°16.428 2°48.016 286.3 11.2 289 12.8
2006-08-17 07:25:46 51°16.433 2°47.992 286.4 11.2 289 12.9
2006-08-17 07:25:51 51°16.438 2°47.969 286.2 11.2 289 12.8
2006-08-17 07:25:56 51°16.442 2°47.945 285.8 11.2 288 12.7
2006-08-17 07:26:01 51°16.447 2°47.922 285.2 11.2 287 12
2006-08-17 07:26:06 51°16.452 2°47.898 284.9 11.3 287 11.5
2006-08-17 07:26:11 51°16.456 2°47.874 284.9 11.3 288 11.5
2006-08-17 07:26:16 51°16.461 2°47.85 284.6 11.3 287 11.6
2006-08-17 07:26:21 51°16.466 2°47.826 284.6 11.2 288 11.8
2006-08-17 07:26:26 51°16.47 2°47.803 284.4 11.3 287 11.9
2006-08-17 07:26:31 51°16.475 2°47.779 284.4 11.3 288 11.9
2006-08-17 07:26:36 51°16.48 2°47.755 284.6 11.3 288 11.8
2006-08-17 07:26:41 51°16.485 2°47.732 284.8 11.3 288 11.8
2006-08-17 07:26:46 51°16.489 2°47.708 284.6 11.3 287 11.8
2006-08-17 07:26:51 51°16.494 2°47.684 284.6 11.3 287 11.7
2006-08-17 07:26:56 51°16.499 2°47.66 284.5 11.3 287 11.2
2006-08-17 07:27:01 51°16.503 2°47.636 284.4 11.3 287 11
2006-08-17 07:27:06 51°16.508 2°47.612 284.1 11.3 287 10.9
2006-08-17 07:27:10 51°16.511 2°47.593 283.8 11.3 287 10.9
2006-08-17 07:27:16 51°16.516 2°47.565 282.7 11.2 286 10.9
2006-08-17 07:27:21 51°16.52 2°47.54 281.6 11.2 284 10.9
2006-08-17 07:27:26 51°16.523 2°47.516 280.1 11.2 283 10.8
2006-08-17 07:27:30 51°16.526 2°47.497 279.7 11.2 283 10.8
2006-08-17 07:27:36 51°16.531 2°47.468 280.4 11.2 284 10.7
2006-08-17 07:27:41 51°16.535 2°47.444 281.6 11.3 286 10.6
2006-08-17 07:27:46 51°16.54 2°47.421 282.9 11.3 286 10.6
2006-08-17 07:27:51 51°16.545 2°47.397 284.1 11.3 288 10.6
2006-08-17 07:27:56 51°16.551 2°47.373 285.5 11.3 289 10.6
2006-08-17 07:28:01 51°16.556 2°47.349 285.9 11.4 289 10.6
2006-08-17 07:28:06 51°16.561 2°47.326 285.9 11.4 290 10.7
2006-08-17 07:28:11 51°16.566 2°47.302 285.9 11.4 289 10.7
2006-08-17 07:28:16 51°16.571 2°47.278 285.7 11.4 288 10.7
2006-08-17 07:28:20 51°16.575 2°47.259 285.4 11.4 287 10.7
2006-08-17 07:28:26 51°16.581 2°47.23 285.2 11.4 288 10.7
2006-08-17 07:28:31 51°16.586 2°47.206 285.6 11.5 288 10.7
2006-08-17 07:28:36 51°16.591 2°47.182 286.4 11.5 289 10.7
2006-08-17 07:28:41 51°16.597 2°47.158 286.6 11.5 290 10.7
2006-08-17 07:28:46 51°16.602 2°47.134 287 11.5 290 10.7
2006-08-17 07:28:51 51°16.608 2°47.11 286.9 11.5 290 10.7
2006-08-17 07:28:56 51°16.613 2°47.087 286.7 11.5 290 10.7
2006-08-17 07:29:01 51°16.619 2°47.062 286.7 11.6 290 10.8
2006-08-17 07:29:06 51°16.624 2°47.038 286.5 11.6 289 10.7
2006-08-17 07:29:11 51°16.629 2°47.014 286 11.6 289 10.6
2006-08-17 07:29:16 51°16.634 2°46.99 285.9 11.6 289 10.5
2006-08-17 07:29:21 51°16.64 2°46.966 285.7 11.6 289 10.4
2006-08-17 07:29:26 51°16.645 2°46.942 285.7 11.5 289 10.3
2006-08-17 07:29:31 51°16.65 2°46.917 286 11.5 289 10.3
2006-08-17 07:29:35 51°16.654 2°46.898 285.5 11.5 288 10.5
2006-08-17 07:29:41 51°16.66 2°46.869 285.3 11.5 289 10.8
2006-08-17 07:29:46 51°16.665 2°46.845 285.3 11.5 287 10.8
2006-08-17 07:29:51 51°16.67 2°46.821 284.8 11.6 289 10.7
2006-08-17 07:29:56 51°16.675 2°46.797 285.1 11.5 288 10.5
2006-08-17 07:30:01 51°16.68 2°46.772 285.6 11.5 289 10.2
2006-08-17 07:30:06 51°16.686 2°46.748 285.6 11.5 288 10
2006-08-17 07:30:11 51°16.691 2°46.724 285.8 11.5 289 9.8
2006-08-17 07:30:16 51°16.696 2°46.7 286.2 11.5 289 9.7
2006-08-17 07:30:21 51°16.701 2°46.676 286.2 11.5 290 9.5
2006-08-17 07:30:26 51°16.707 2°46.652 286 11.5 289 9.1
2006-08-17 07:30:31 51°16.712 2°46.629 285.9 11.4 289 9
2006-08-17 07:30:36 51°16.717 2°46.605 285.7 11.4 288 9.6
2006-08-17 07:30:41 51°16.722 2°46.581 284.8 11.4 287 9.9
2006-08-17 07:30:46 51°16.726 2°46.557 284.5 11.4 288 10.3
2006-08-17 07:30:50 51°16.73 2°46.537 284.8 11.5 288 10.3
2006-08-17 07:30:56 51°16.737 2°46.508 286 11.6 290 10.3
2006-08-17 07:31:01 51°16.744 2°46.485 287.8 11.7 291 10
2006-08-17 07:31:06 51°16.751 2°46.461 289.8 11.6 294 9.9
2006-08-17 07:31:10 51°16.756 2°46.443 291.4 11.7 295 9.9
2006-08-17 07:31:16 51°16.765 2°46.415 293 11.7 297 9.9
2006-08-17 07:31:21 51°16.773 2°46.392 293.7 11.7 297 9.9
2006-08-17 07:31:26 51°16.78 2°46.369 293.9 11.7 297 9.9
2006-08-17 07:31:31 51°16.788 2°46.346 294.2 11.7 298 10
2006-08-17 07:31:36 51°16.795 2°46.323 294.4 11.7 298 10.2
2006-08-17 07:31:41 51°16.803 2°46.3 294 11.7 297 10.7
2006-08-17 07:31:46 51°16.81 2°46.277 294.5 11.8 297 10.8
2006-08-17 07:31:51 51°16.818 2°46.254 294.6 11.8 298 10.8
2006-08-17 07:31:56 51°16.825 2°46.23 294.5 11.8 297 11.1
2006-08-17 07:32:01 51°16.833 2°46.207 294.1 11.8 297 11.3
2006-08-17 07:32:06 51°16.84 2°46.184 293.9 11.8 297 11.4
2006-08-17 07:32:10 51°16.846 2°46.165 293.9 11.8 297 11.3
2006-08-17 07:32:16 51°16.855 2°46.137 293.9 11.8 297 11.7
2006-08-17 07:32:21 51°16.863 2°46.114 293.7 11.8 296 11.8
2006-08-17 07:32:26 51°16.87 2°46.09 293.6 11.8 296 11.9
2006-08-17 07:32:31 51°16.877 2°46.067 293.2 11.8 296 12.2
2006-08-17 07:32:36 51°16.884 2°46.043 293.2 11.9 296 12.5
2006-08-17 07:32:41 51°16.891 2°46.019 293.1 11.9 295 12.6
2006-08-17 07:32:46 51°16.899 2°45.996 293.2 11.9 296 12.8
2006-08-17 07:32:51 51°16.906 2°45.972 293.1 11.9 296 13.2
2006-08-17 07:32:56 51°16.913 2°45.948 293.2 11.9 296 13.5
2006-08-17 07:33:01 51°16.92 2°45.925 293.4 11.9 296 13.8
2006-08-17 07:33:06 51°16.928 2°45.901 293.7 11.9 296 14
2006-08-17 07:33:11 51°16.935 2°45.877 293.7 11.9 296 14.1
2006-08-17 07:33:16 51°16.942 2°45.854 293.4 11.9 296 14.2
2006-08-17 07:33:21 51°16.95 2°45.83 293.5 11.9 296 14.1
2006-08-17 07:33:26 51°16.957 2°45.807 293.9 11.9 298 14
2006-08-17 07:33:30 51°16.963 2°45.788 294.9 11.9 298 13.9
2006-08-17 07:33:36 51°16.973 2°45.76 295.2 11.9 297 13.8
2006-08-17 07:33:41 51°16.98 2°45.737 295.4 11.9 297 13.8
2006-08-17 07:33:46 51°16.988 2°45.713 295.5 11.9 298 13.9
2006-08-17 07:33:51 51°16.996 2°45.69 295.8 12 298 14
2006-08-17 07:33:56 51°17.004 2°45.667 296.4 12 299 14
2006-08-17 07:34:01 51°17.012 2°45.644 296.8 12 299 14.2
2006-08-17 07:34:06 51°17.02 2°45.621 296.6 12 299 14.4
2006-08-17 07:34:11 51°17.028 2°45.597 296.6 12 299 14.5
2006-08-17 07:34:16 51°17.036 2°45.574 296.6 12 298 14.8
2006-08-17 07:34:21 51°17.043 2°45.55 295.7 12 298 14.7
2006-08-17 07:34:26 51°17.051 2°45.527 295.3 12 297 15.1
2006-08-17 07:34:31 51°17.059 2°45.503 295.3 12 298 15
2006-08-17 07:34:36 51°17.066 2°45.48 295.7 12 298 15.2
2006-08-17 07:34:41 51°17.074 2°45.456 295.7 12 298 15.1
2006-08-17 07:34:46 51°17.082 2°45.433 295.6 12 298 14.8
2006-08-17 07:34:51 51°17.09 2°45.41 295.6 12 298 14.6
2006-08-17 07:34:56 51°17.097 2°45.386 295.9 11.9 298 14.5
2006-08-17 07:35:01 51°17.105 2°45.363 295.9 11.9 299 14.9
2006-08-17 07:35:06 51°17.113 2°45.34 296.1 11.9 298 14.9
2006-08-17 07:35:11 51°17.121 2°45.317 295.7 11.9 297 15.1
2006-08-17 07:35:16 51°17.128 2°45.293 295.5 11.9 298 15.4
2006-08-17 07:35:21 51°17.136 2°45.27 295.2 11.9 298 15.2
2006-08-17 07:35:26 51°17.144 2°45.247 295.2 11.9 298 15.2
2006-08-17 07:35:30 51°17.15 2°45.228 295.3 11.9 298 15
2006-08-17 07:35:36 51°17.159 2°45.201 295.2 11.9 298 14.9
2006-08-17 07:35:41 51°17.167 2°45.177 295.4 11.8 298 14.7
2006-08-17 07:35:46 51°17.175 2°45.155 295.6 11.8 299 14.6
2006-08-17 07:35:51 51°17.183 2°45.132 296.3 11.8 299 14.6
2006-08-17 07:35:56 51°17.191 2°45.109 296.1 11.8 299 14.6
2006-08-17 07:36:01 51°17.199 2°45.086 295.5 11.7 299 14.8
2006-08-17 07:36:06 51°17.206 2°45.064 295.3 11.7 298 15.7
2006-08-17 07:36:11 51°17.214 2°45.041 295.2 11.7 298 16.1
2006-08-17 07:36:16 51°17.222 2°45.018 295.2 11.7 298 16.4
2006-08-17 07:36:21 51°17.229 2°44.995 295.1 11.7 298 16.8
2006-08-17 07:36:26 51°17.237 2°44.972 294.9 11.7 298 17.1
2006-08-17 07:36:30 51°17.243 2°44.954 294.7 11.7 297 17.3
2006-08-17 07:36:36 51°17.252 2°44.926 294.6 11.7 298 17.3
2006-08-17 07:36:41 51°17.259 2°44.903 294.2 11.6 297 17.4
2006-08-17 07:36:46 51°17.266 2°44.88 294 11.6 297 17.6
2006-08-17 07:36:51 51°17.273 2°44.857 294 11.6 297 17.7
2006-08-17 07:36:56 51°17.281 2°44.835 293.9 11.6 297 17.8
2006-08-17 07:37:01 51°17.288 2°44.811 294.2 11.7 297 17.8
2006-08-17 07:37:06 51°17.295 2°44.789 294.1 11.6 296 17.9
2006-08-17 07:37:11 51°17.303 2°44.766 294.3 11.7 297 17.9
2006-08-17 07:37:16 51°17.31 2°44.743 294.5 11.7 297 18
2006-08-17 07:37:20 51°17.316 2°44.724 294.9 11.7 298 17.9
2006-08-17 07:37:26 51°17.325 2°44.697 295.4 11.7 298 17.9
2006-08-17 07:37:31 51°17.333 2°44.674 295.5 11.7 298 18
2006-08-17 07:37:36 51°17.341 2°44.651 295.8 11.7 298 18
2006-08-17 07:37:41 51°17.348 2°44.628 295.8 11.7 298 17.9
2006-08-17 07:37:46 51°17.356 2°44.606 296 11.7 298 18
2006-08-17 07:37:51 51°17.364 2°44.583 296.1 11.8 299 17.8
2006-08-17 07:37:55 51°17.37 2°44.565 296.4 11.8 299 17.8
2006-08-17 07:38:01 51°17.38 2°44.537 296.5 11.8 299 17.8
2006-08-17 07:38:06 51°17.387 2°44.514 296.2 11.8 298 17.7
2006-08-17 07:38:11 51°17.394 2°44.491 295.5 11.8 297 17.6
2006-08-17 07:38:16 51°17.402 2°44.468 295.4 11.7 297 17.8
2006-08-17 07:38:21 51°17.409 2°44.444 294.6 11.8 296 18
2006-08-17 07:38:26 51°17.416 2°44.421 294.4 11.8 296 18.1
2006-08-17 07:38:31 51°17.424 2°44.397 294.3 11.8 296 18.2
2006-08-17 07:38:36 51°17.431 2°44.374 294.2 11.8 297 18.2
2006-08-17 07:38:41 51°17.439 2°44.351 295.1 11.8 298 18.4
2006-08-17 07:38:46 51°17.446 2°44.328 295.5 11.8 297 18.5
2006-08-17 07:38:51 51°17.454 2°44.305 296.1 11.8 299 18.4
2006-08-17 07:38:56 51°17.462 2°44.282 296.3 11.8 297 18.4
2006-08-17 07:39:01 51°17.469 2°44.259 295.4 11.8 297 18.5
2006-08-17 07:39:06 51°17.476 2°44.235 294.8 11.8 297 18.4
2006-08-17 07:39:11 51°17.484 2°44.212 294.6 11.8 297 18.4
2006-08-17 07:39:15 51°17.49 2°44.193 294.6 11.8 297 18.4
2006-08-17 07:39:21 51°17.499 2°44.165 294.8 11.8 297 18.5
2006-08-17 07:39:26 51°17.506 2°44.142 295 11.8 297 18.6
2006-08-17 07:39:31 51°17.513 2°44.119 295 11.8 297 18.7
2006-08-17 07:39:36 51°17.521 2°44.096 295 11.8 297 18.6
2006-08-17 07:39:41 51°17.528 2°44.072 294.9 11.8 297 18.5
2006-08-17 07:39:46 51°17.535 2°44.049 294.6 11.8 297 18.4
2006-08-17 07:39:51 51°17.543 2°44.025 295 11.8 297 18
2006-08-17 07:39:56 51°17.551 2°44.003 295.4 11.8 298 18.4
2006-08-17 07:40:01 51°17.559 2°43.98 295.8 11.9 298 18.1
2006-08-17 07:40:06 51°17.566 2°43.956 296.1 11.8 298 17.6
2006-08-17 07:40:11 51°17.574 2°43.933 296.1 11.8 298 16.9
2006-08-17 07:40:16 51°17.582 2°43.91 296.2 11.8 298 16.6
2006-08-17 07:40:21 51°17.589 2°43.887 296.1 11.8 298 16.2
2006-08-17 07:40:26 51°17.597 2°43.864 296 11.8 297 15.9
2006-08-17 07:40:30 51°17.603 2°43.846 295.4 11.7 298 15.1
2006-08-17 07:40:36 51°17.611 2°43.818 294.9 11.7 296 15.9
2006-08-17 07:40:41 51°17.618 2°43.794 293.8 11.7 296 16.1
2006-08-17 07:40:46 51°17.625 2°43.771 292.8 11.7 294 15.7
2006-08-17 07:40:51 51°17.631 2°43.747 292.2 11.7 294 14.9
2006-08-17 07:40:56 51°17.638 2°43.724 292 11.6 294 14.4
2006-08-17 07:41:01 51°17.645 2°43.7 292 11.6 294 13.6
2006-08-17 07:41:06 51°17.652 2°43.677 292.4 11.6 296 12.5
2006-08-17 07:41:11 51°17.659 2°43.654 293.2 11.6 296 15.7
2006-08-17 07:41:16 51°17.667 2°43.631 294.8 11.7 298 16.5
2006-08-17 07:41:21 51°17.675 2°43.608 295.4 11.7 298 16.6
2006-08-17 07:41:26 51°17.682 2°43.586 296.4 11.7 299 15.9
2006-08-17 07:41:30 51°17.688 2°43.567 296.4 11.7 299 15
2006-08-17 07:41:36 51°17.698 2°43.54 296.6 11.7 299 14.1
2006-08-17 07:41:41 51°17.705 2°43.517 296.6 11.7 297 14.9
2006-08-17 07:41:46 51°17.713 2°43.494 296.1 11.7 298 14.4
2006-08-17 07:41:50 51°17.719 2°43.476 296.1 11.7 299 13.3
2006-08-17 07:41:56 51°17.729 2°43.449 297.6 11.7 301 12.4
2006-08-17 07:42:01 51°17.737 2°43.427 298.2 11.6 301 13.6
2006-08-17 07:42:06 51°17.745 2°43.405 298.3 11.6 301 13
2006-08-17 07:42:11 51°17.754 2°43.383 297.7 11.7 300 12.6
2006-08-17 07:42:16 51°17.762 2°43.361 298.1 11.6 301 13.4
2006-08-17 07:42:21 51°17.77 2°43.338 298 11.6 300 13.8
2006-08-17 07:42:26 51°17.778 2°43.316 298.1 11.7 300 12.9
2006-08-17 07:42:31 51°17.787 2°43.294 297.8 11.7 300 13.3
2006-08-17 07:42:35 51°17.793 2°43.276 298.3 11.7 302 13
2006-08-17 07:42:41 51°17.804 2°43.25 298.6 11.7 301 13.4
2006-08-17 07:42:46 51°17.812 2°43.228 298.9 11.7 302 13.8
2006-08-17 07:42:51 51°17.821 2°43.206 299 11.7 301 14.4
2006-08-17 07:42:56 51°17.829 2°43.183 298.9 11.8 301 15.2
2006-08-17 07:43:01 51°17.838 2°43.161 298.3 11.8 302 15.9
2006-08-17 07:43:06 51°17.846 2°43.139 298 11.8 301 16.9
2006-08-17 07:43:11 51°17.855 2°43.116 297.5 11.8 301 18.1
2006-08-17 07:43:16 51°17.863 2°43.094 297.8 11.8 301 19.6
2006-08-17 07:43:21 51°17.872 2°43.071 298 11.9 302 21
2006-08-17 07:43:26 51°17.88 2°43.049 298.1 11.9 302 21.4
2006-08-17 07:43:31 51°17.889 2°43.026 298 11.9 301 22
2006-08-17 07:43:36 51°17.898 2°43.004 297.9 11.9 302 22.2
2006-08-17 07:43:41 51°17.906 2°42.981 297.6 12 301 22.7
2006-08-17 07:43:46 51°17.915 2°42.958 298.1 12 302 23.1
2006-08-17 07:43:50 51°17.922 2°42.94 297.8 12 301 23.5
2006-08-17 07:43:56 51°17.932 2°42.913 297.8 12.1 301 23.7
2006-08-17 07:44:01 51°17.941 2°42.89 297.5 12.1 301 24
2006-08-17 07:44:06 51°17.95 2°42.867 297.7 12.1 302 24.3
2006-08-17 07:44:11 51°17.959 2°42.844 298 12.2 302 24.5
2006-08-17 07:44:16 51°17.968 2°42.821 298 12.1 302 24.8
2006-08-17 07:44:21 51°17.976 2°42.798 297 12.1 300 25.1
2006-08-17 07:44:26 51°17.984 2°42.775 295.9 12.1 300 25.1
2006-08-17 07:44:31 51°17.992 2°42.751 295.2 12.1 299 25.4
2006-08-17 07:44:35 51°17.998 2°42.732 294.3 12 299 25.2
2006-08-17 07:44:41 51°18.008 2°42.704 293.6 12 297 25.1
2006-08-17 07:44:46 51°18.015 2°42.68 293 12 298 25.1
2006-08-17 07:44:51 51°18.023 2°42.657 293 12 298 25
2006-08-17 07:44:56 51°18.031 2°42.633 292.7 12 298 25
2006-08-17 07:45:01 51°18.039 2°42.61 293.1 12 298 25.2
2006-08-17 07:45:06 51°18.047 2°42.586 293.5 12 299 25.3
2006-08-17 07:45:10 51°18.053 2°42.567 293.6 12 297 25.5
2006-08-17 07:45:16 51°18.063 2°42.54 293.5 11.9 299 25.9
2006-08-17 07:45:21 51°18.071 2°42.516 294.6 12.1 299 25.9
2006-08-17 07:45:26 51°18.08 2°42.494 295.2 12 301 26.1
2006-08-17 07:45:31 51°18.088 2°42.471 296.2 12 301 26.1
2006-08-17 07:45:36 51°18.097 2°42.449 297.1 12 302 25.8
2006-08-17 07:45:41 51°18.105 2°42.426 297.5 11.9 301 25.6
2006-08-17 07:45:45 51°18.112 2°42.408 297.2 11.9 300 25.6
2006-08-17 07:45:51 51°18.121 2°42.38 296.1 11.8 298 25.5
2006-08-17 07:45:56 51°18.129 2°42.357 294.6 11.8 297 25.5
2006-08-17 07:46:01 51°18.136 2°42.334 293.9 11.7 297 25.6
2006-08-17 07:46:06 51°18.143 2°42.311 293.6 11.7 296 25.4
2006-08-17 07:46:11 51°18.15 2°42.287 293.4 11.7 296 25.4
2006-08-17 07:46:16 51°18.157 2°42.264 293.7 11.7 297 25.4
2006-08-17 07:46:21 51°18.165 2°42.242 295.1 11.7 298 25.4
2006-08-17 07:46:26 51°18.173 2°42.219 296.7 11.7 300 25.4
2006-08-17 07:46:31 51°18.182 2°42.197 297.6 11.7 300 25.4
2006-08-17 07:46:36 51°18.19 2°42.174 298.6 11.7 301 25.3
2006-08-17 07:46:41 51°18.199 2°42.152 299.1 11.7 302 25.3
2006-08-17 07:46:46 51°18.207 2°42.13 299.6 11.7 301 25.1
2006-08-17 07:46:51 51°18.216 2°42.108 299.7 11.8 302 25.2
2006-08-17 07:46:55 51°18.223 2°42.09 299.7 11.8 302 25.2
2006-08-17 07:47:01 51°18.233 2°42.064 299.8 11.8 302 25.1
2006-08-17 07:47:06 51°18.242 2°42.042 299.9 11.8 302 25.1
2006-08-17 07:47:11 51°18.25 2°42.019 300 11.7 302 25.1
2006-08-17 07:47:16 51°18.259 2°41.997 299.9 11.7 302 25
2006-08-17 07:47:21 51°18.267 2°41.975 299.5 11.8 301 24.9
2006-08-17 07:47:25 51°18.274 2°41.957 298.9 11.8 300 24.9
2006-08-17 07:47:30 51°18.282 2°41.935 298.6 11.8 301 24.9
2006-08-17 07:47:36 51°18.293 2°41.908 298.4 11.8 301 24.9
2006-08-17 07:47:41 51°18.301 2°41.885 298.3 11.9 301 24.8
2006-08-17 07:47:46 51°18.309 2°41.862 298.3 11.8 300 24.6
2006-08-17 07:47:51 51°18.318 2°41.84 298.2 11.8 301 24.6
2006-08-17 07:47:56 51°18.326 2°41.817 297.6 11.8 299 24.3
2006-08-17 07:48:01 51°18.333 2°41.794 297.1 11.8 299 23.8
2006-08-17 07:48:06 51°18.341 2°41.772 296.9 11.8 299 23.7
2006-08-17 07:48:10 51°18.347 2°41.753 296.7 11.7 298 23.3
2006-08-17 07:48:16 51°18.356 2°41.726 295.7 11.7 298 23.9
2006-08-17 07:48:21 51°18.364 2°41.703 295.5 11.7 298 24.1
2006-08-17 07:48:26 51°18.372 2°41.68 295.8 11.8 298 24.3
2006-08-17 07:48:31 51°18.38 2°41.657 296.8 11.8 300 24
2006-08-17 07:48:36 51°18.388 2°41.635 297.6 11.8 300 23.9
2006-08-17 07:48:41 51°18.397 2°41.612 298.3 11.8 301 24
2006-08-17 07:48:46 51°18.405 2°41.589 298.7 11.8 301 23.9
2006-08-17 07:48:51 51°18.414 2°41.567 299 11.8 301 23.3
2006-08-17 07:48:56 51°18.422 2°41.545 298.7 11.8 301 20.6
2006-08-17 07:49:01 51°18.431 2°41.523 298.8 11.8 302 21.6
2006-08-17 07:49:06 51°18.439 2°41.501 299 11.8 301 22.6
2006-08-17 07:49:11 51°18.448 2°41.478 299 11.7 301 23
2006-08-17 07:49:16 51°18.456 2°41.456 299.1 11.7 302 23
2006-08-17 07:49:21 51°18.465 2°41.434 299 11.7 301 22.9
2006-08-17 07:49:26 51°18.473 2°41.412 298.4 11.7 301 22
2006-08-17 07:49:31 51°18.481 2°41.389 298.4 11.7 300 20.6
2006-08-17 07:49:36 51°18.489 2°41.367 298.2 11.7 301 19.8
2006-08-17 07:49:41 51°18.498 2°41.345 298.3 11.6 301 21.1
2006-08-17 07:49:46 51°18.506 2°41.323 298.7 11.6 301 21.5
2006-08-17 07:49:50 51°18.513 2°41.305 298.2 11.6 300 21.8
2006-08-17 07:49:56 51°18.522 2°41.278 297.8 11.6 300 21.5
2006-08-17 07:50:01 51°18.53 2°41.255 296.9 11.7 298 21.1
2006-08-17 07:50:06 51°18.537 2°41.233 296.8 11.7 299 19.5
2006-08-17 07:50:11 51°18.546 2°41.21 297 11.7 300 19.2
2006-08-17 07:50:16 51°18.554 2°41.188 297.4 11.7 299 20.4
2006-08-17 07:50:21 51°18.562 2°41.165 297.5 11.7 299 21
2006-08-17 07:50:26 51°18.57 2°41.143 297.9 11.7 301 21.4
2006-08-17 07:50:31 51°18.58 2°41.122 299.9 11.8 304 20.6
2006-08-17 07:50:36 51°18.59 2°41.101 303.1 11.8 306 19.1
2006-08-17 07:50:41 51°18.6 2°41.081 305.1 11.8 307 18.9
2006-08-17 07:50:46 51°18.611 2°41.062 307.6 11.8 311 18.7
2006-08-17 07:50:51 51°18.622 2°41.042 309.3 11.9 312 17.7
2006-08-17 07:50:56 51°18.633 2°41.023 309.7 11.9 313 16
2006-08-17 07:51:01 51°18.645 2°41.004 309.8 11.9 312 14.9
2006-08-17 07:51:06 51°18.656 2°40.984 310.1 11.9 313 17
2006-08-17 07:51:11 51°18.667 2°40.965 310.5 11.8 313 16.3
2006-08-17 07:51:16 51°18.679 2°40.947 310.7 11.8 314 14.2
2006-08-17 07:51:21 51°18.69 2°40.928 311.4 11.9 315 17.7
2006-08-17 07:51:26 51°18.702 2°40.909 312.3 11.9 315 19.9
2006-08-17 07:51:31 51°18.713 2°40.89 312 11.9 314 20.7
2006-08-17 07:51:36 51°18.724 2°40.871 311.3 11.9 314 19.4
2006-08-17 07:51:40 51°18.734 2°40.856 310.6 12 314 16.4
2006-08-17 07:51:46 51°18.747 2°40.833 310.9 12 314 16.8
2006-08-17 07:51:51 51°18.759 2°40.814 311.3 11.9 315 18.6
2006-08-17 07:51:56 51°18.771 2°40.795 311.3 11.9 314 19.3
2006-08-17 07:52:01 51°18.783 2°40.776 311.2 11.9 315 20
2006-08-17 07:52:06 51°18.794 2°40.757 310.9 11.9 314 19.9
2006-08-17 07:52:11 51°18.805 2°40.738 310.1 11.8 313 19.8
2006-08-17 07:52:16 51°18.816 2°40.719 309.4 11.8 313 19.8
2006-08-17 07:52:21 51°18.827 2°40.699 308.4 11.8 312 19.7
2006-08-17 07:52:26 51°18.837 2°40.68 308.4 11.8 311 19.6
2006-08-17 07:52:31 51°18.848 2°40.66 307.8 11.7 310 19.4
2006-08-17 07:52:36 51°18.858 2°40.639 306.3 11.7 309 19.2
2006-08-17 07:52:41 51°18.868 2°40.619 305.3 11.7 308 19.3
2006-08-17 07:52:46 51°18.878 2°40.599 305 11.7 308 19.5
2006-08-17 07:52:50 51°18.886 2°40.582 304.8 11.8 308 20.1
2006-08-17 07:52:56 51°18.898 2°40.557 304.7 11.8 308 19.6
2006-08-17 07:53:01 51°18.908 2°40.537 304.6 11.7 309 17.7
2006-08-17 07:53:06 51°18.919 2°40.517 305.7 11.8 310 16.5
2006-08-17 07:53:10 51°18.928 2°40.502 307 11.8 311 18.8
2006-08-17 07:53:16 51°18.941 2°40.478 308 11.9 312 19
2006-08-17 07:53:21 51°18.951 2°40.458 308.3 11.9 312 19.7
2006-08-17 07:53:26 51°18.962 2°40.438 307.9 11.9 311 20.9
2006-08-17 07:53:31 51°18.973 2°40.418 307.7 11.9 311 20.7
2006-08-17 07:53:36 51°18.984 2°40.398 308.1 12 312 20.5
2006-08-17 07:53:41 51°18.995 2°40.378 308.5 12 311 21.8
2006-08-17 07:53:46 51°19.006 2°40.358 308.2 12 310 21.5
2006-08-17 07:53:51 51°19.017 2°40.338 307.9 12.1 310 21.1
2006-08-17 07:53:56 51°19.028 2°40.317 308 12.1 310 22.6
2006-08-17 07:54:01 51°19.038 2°40.296 307.9 12.1 309 22.7
2006-08-17 07:54:06 51°19.049 2°40.276 307.4 12.2 309 22.1
2006-08-17 07:54:11 51°19.06 2°40.255 307.4 12.2 310 22.3
2006-08-17 07:54:16 51°19.071 2°40.235 308.4 12.2 311 22
2006-08-17 07:54:21 51°19.082 2°40.214 308.6 12.2 310 22.9
2006-08-17 07:54:26 51°19.093 2°40.194 308.4 12.3 311 22
2006-08-17 07:54:31 51°19.104 2°40.173 308.4 12.3 311 22.1
2006-08-17 07:54:36 51°19.116 2°40.153 308.6 12.3 312 23
2006-08-17 07:54:41 51°19.126 2°40.131 308.3 12.3 309 23
2006-08-17 07:54:46 51°19.137 2°40.111 307.1 12.3 310 22.7
2006-08-17 07:54:50 51°19.146 2°40.094 307 12.2 310 23.6
2006-08-17 07:54:56 51°19.159 2°40.069 306.3 12.3 310 23.6
2006-08-17 07:55:01 51°19.17 2°40.048 306.5 12.3 310 23.6
2006-08-17 07:55:06 51°19.18 2°40.027 305.7 12.2 309 23.9
2006-08-17 07:55:10 51°19.188 2°40.01 304.9 12.1 307 24.1
2006-08-17 07:55:16 51°19.201 2°39.984 303.9 12.2 307 24.3
2006-08-17 07:55:21 51°19.21 2°39.963 303.2 12.2 307 24.5
2006-08-17 07:55:26 51°19.22 2°39.941 302.7 12.2 306 24.8
2006-08-17 07:55:31 51°19.23 2°39.919 302.7 12.2 306 25
2006-08-17 07:55:36 51°19.24 2°39.898 303 12.2 306 25.4
2006-08-17 07:55:41 51°19.251 2°39.876 303.1 12.2 306 25.7
2006-08-17 07:55:46 51°19.261 2°39.854 303.8 12.2 307 26.1
2006-08-17 07:55:51 51°19.272 2°39.833 305.3 12.3 309 26.4
2006-08-17 07:55:56 51°19.282 2°39.812 306.2 12.3 309 26.6
2006-08-17 07:56:01 51°19.294 2°39.792 307.6 12.4 311 27
2006-08-17 07:56:05 51°19.303 2°39.775 308.5 12.4 311 27.1
2006-08-17 07:56:09 51°19.312 2°39.759 309 12.4 312 27.6
2006-08-17 07:56:16 51°19.328 2°39.73 309.1 12.4 311 27.9
2006-08-17 07:56:21 51°19.34 2°39.71 309.2 12.5 313 28.3
2006-08-17 07:56:25 51°19.349 2°39.693 309.5 12.4 312 28.5
2006-08-17 07:56:30 51°19.36 2°39.672 309.2 12.4 312 28.7
2006-08-17 07:56:36 51°19.373 2°39.647 307.6 12.4 310 29
2006-08-17 07:56:41 51°19.385 2°39.626 307 12.4 310 29.4
2006-08-17 07:56:46 51°19.395 2°39.605 306.6 12.4 309 29.8
2006-08-17 07:56:51 51°19.406 2°39.583 305.5 12.4 309 29.8
2006-08-17 07:56:56 51°19.417 2°39.562 305.4 12.4 309 30.2
2006-08-17 07:57:01 51°19.428 2°39.541 305.9 12.4 310 30.4
2006-08-17 07:57:05 51°19.437 2°39.524 306.1 12.4 310 30.3
2006-08-17 07:57:11 51°19.45 2°39.499 306.3 12.5 311 30.5
2006-08-17 07:57:16 51°19.462 2°39.478 306.4 12.4 310 30.7
2006-08-17 07:57:21 51°19.473 2°39.457 306.3 12.4 310 30.6
2006-08-17 07:57:26 51°19.483 2°39.435 305.5 12.4 309 30.5
2006-08-17 07:57:31 51°19.494 2°39.414 304.7 12.4 308 30.4
2006-08-17 07:57:35 51°19.503 2°39.397 304.2 12.4 309 30.5
2006-08-17 07:57:41 51°19.515 2°39.371 304.2 12.4 308 30.9
2006-08-17 07:57:46 51°19.526 2°39.349 303.8 12.4 307 31.2
2006-08-17 07:57:49 51°19.532 2°39.336 302.9 12.3 307 31
2006-08-17 07:57:56 51°19.546 2°39.305 301.9 12.3 305 30.9
2006-08-17 07:58:01 51°19.555 2°39.282 301.2 12.3 305 30.8
2006-08-17 07:58:05 51°19.563 2°39.264 299.3 12.2 302 30.6
2006-08-17 07:58:11 51°19.573 2°39.237 298.3 12.2 302 30.3
2006-08-17 07:58:16 51°19.582 2°39.213 297.4 12.2 301 30.1
2006-08-17 07:58:21 51°19.59 2°39.19 296.6 12.2 301 29.9
2006-08-17 07:58:26 51°19.598 2°39.167 296.2 12.1 299 29.7
2006-08-17 07:58:30 51°19.605 2°39.148 295.8 12 299 29.5
2006-08-17 07:58:36 51°19.613 2°39.12 294.7 11.9 297 29.3
2006-08-17 07:58:41 51°19.621 2°39.096 294.4 11.9 297 29.1
2006-08-17 07:58:45 51°19.627 2°39.077 294.6 11.9 297 28.8
2006-08-17 07:58:51 51°19.636 2°39.049 295.2 11.9 298 28.7
2006-08-17 07:58:55 51°19.642 2°39.03 296.1 12 298 28.5
2006-08-17 07:59:01 51°19.653 2°39.003 297.7 12 300 28.2
2006-08-17 07:59:06 51°19.661 2°38.98 298.8 12.1 301 28.1
2006-08-17 07:59:11 51°19.67 2°38.958 299.8 12.1 302 27.9
2006-08-17 07:59:16 51°19.68 2°38.935 300.9 12.2 303 27.7
2006-08-17 07:59:21 51°19.689 2°38.913 301.7 12.1 304 27.3
2006-08-17 07:59:26 51°19.698 2°38.89 302.4 12.2 304 27
2006-08-17 07:59:31 51°19.708 2°38.868 302.8 12.2 304 26.8
2006-08-17 07:59:36 51°19.718 2°38.846 302.8 12.2 304 26.7
2006-08-17 07:59:41 51°19.727 2°38.823 302.8 12.1 304 26.1
2006-08-17 07:59:46 51°19.736 2°38.801 302.4 12.1 303 26.1
2006-08-17 07:59:51 51°19.745 2°38.778 301.7 12 302 25.8
2006-08-17 07:59:56 51°19.753 2°38.755 301 12 301 25.9
2006-08-17 08:00:01 51°19.761 2°38.732 298.8 11.9 298 25.6
2006-08-17 08:00:05 51°19.767 2°38.713 297.4 11.9 297 25.6
2006-08-17 08:00:09 51°19.772 2°38.694 295.8 11.9 295 25.6
2006-08-17 08:00:16 51°19.781 2°38.661 293.7 11.9 294 25.1
2006-08-17 08:00:21 51°19.788 2°38.636 292.6 11.9 293 24.9
2006-08-17 08:00:26 51°19.794 2°38.612 291.9 11.9 292 24.6
2006-08-17 08:00:31 51°19.8 2°38.587 291.1 11.9 291 24.9
2006-08-17 08:00:36 51°19.805 2°38.562 289.1 11.9 289 24.6
2006-08-17 08:00:41 51°19.81 2°38.538 288.4 11.9 289 24.2
2006-08-17 08:00:45 51°19.815 2°38.518 287.8 11.9 289 24.3
2006-08-17 08:00:51 51°19.821 2°38.488 287.4 11.8 289 24.5
2006-08-17 08:00:56 51°19.826 2°38.463 287.4 11.9 289 24.6
2006-08-17 08:01:01 51°19.831 2°38.438 287.1 11.8 288 24.7
2006-08-17 08:01:06 51°19.836 2°38.413 286.7 11.8 287 24.8
2006-08-17 08:01:11 51°19.842 2°38.388 286.9 11.8 289 24.7
2006-08-17 08:01:16 51°19.847 2°38.363 287 11.9 289 24.5
2006-08-17 08:01:21 51°19.853 2°38.339 288 11.9 291 24.2
2006-08-17 08:01:26 51°19.86 2°38.314 289.8 11.9 292 23.2
2006-08-17 08:01:31 51°19.866 2°38.29 291 11.9 294 22.5
2006-08-17 08:01:36 51°19.873 2°38.266 292.2 11.9 294 23.8
2006-08-17 08:01:41 51°19.88 2°38.242 292.1 11.8 293 24.5
2006-08-17 08:01:46 51°19.886 2°38.218 291.6 11.8 293 24.5
2006-08-17 08:01:51 51°19.892 2°38.194 290.5 11.8 291 24
2006-08-17 08:01:55 51°19.896 2°38.174 289.9 11.7 291 22.7
2006-08-17 08:02:01 51°19.903 2°38.145 289.2 11.7 290 24
2006-08-17 08:02:06 51°19.908 2°38.121 288.1 11.6 288 24.5
2006-08-17 08:02:11 51°19.912 2°38.096 287.1 11.6 288 24.4
2006-08-17 08:02:16 51°19.917 2°38.071 285.7 11.6 286 22.8
2006-08-17 08:02:21 51°19.921 2°38.047 285 11.6 286 23.9
2006-08-17 08:02:25 51°19.925 2°38.027 285 11.5 286 24.5
2006-08-17 08:02:31 51°19.93 2°37.998 284.7 11.6 286 24.4
2006-08-17 08:02:36 51°19.934 2°37.973 284.5 11.6 286 23.3
2006-08-17 08:02:41 51°19.939 2°37.948 284.8 11.6 286 23.3
2006-08-17 08:02:45 51°19.943 2°37.929 285.5 11.6 288 24.4
2006-08-17 08:02:51 51°19.949 2°37.899 286.3 11.6 287 24.3
2006-08-17 08:02:56 51°19.954 2°37.875 287.4 11.6 289 24.3
2006-08-17 08:03:01 51°19.959 2°37.851 288.1 11.7 289 24
2006-08-17 08:03:06 51°19.965 2°37.826 289 11.7 290 23.6
2006-08-17 08:03:11 51°19.971 2°37.803 289.8 11.5 291 23
2006-08-17 08:03:16 51°19.977 2°37.78 290.6 11.4 292 22.4
2006-08-17 08:03:21 51°19.982 2°37.757 291 11.2 292 22.5
2006-08-17 08:03:26 51°19.988 2°37.734 290.7 11 292 23.2
2006-08-17 08:03:29 51°19.991 2°37.721 289.7 10.9 290 23
2006-08-17 08:03:36 51°19.998 2°37.689 289.2 10.8 291 22.4
2006-08-17 08:03:41 51°20.003 2°37.667 288.5 10.7 289 22.3
2006-08-17 08:03:46 51°20.009 2°37.645 288.3 10.6 291 23.5
2006-08-17 08:03:51 51°20.014 2°37.623 288.7 10.6 290 24
2006-08-17 08:03:56 51°20.018 2°37.602 288.7 10.4 289 23.8
2006-08-17 08:04:01 51°20.023 2°37.582 288.6 10 291 23.6
2006-08-17 08:04:06 51°20.028 2°37.562 288.8 9.7 290 23.7
2006-08-17 08:04:11 51°20.032 2°37.542 288.1 9.5 289 24
2006-08-17 08:04:16 51°20.035 2°37.523 285.9 9.2 286 23.9
2006-08-17 08:04:21 51°20.039 2°37.504 284 9 287 23.6
2006-08-17 08:04:26 51°20.042 2°37.485 283.3 8.8 285 22.8
2006-08-17 08:04:29 51°20.044 2°37.474 282.7 8.7 287 22.1
2006-08-17 08:04:35 51°20.047 2°37.454 281.8 7.9 284 22
2006-08-17 08:04:41 51°20.05 2°37.435 280.8 7.3 284 22.9
2006-08-17 08:04:46 51°20.052 2°37.421 279.5 6.8 282 23.8
2006-08-17 08:04:51 51°20.053 2°37.408 277.1 6.2 280 23.9
2006-08-17 08:04:56 51°20.054 2°37.396 274.1 5.7 278 23.5
2006-08-17 08:05:01 51°20.055 2°37.384 271.1 5.3 276 23.4
2006-08-17 08:05:06 51°20.055 2°37.373 268.4 5 274 23.2
2006-08-17 08:05:11 51°20.056 2°37.363 267.6 4.8 277 22.7
2006-08-17 08:05:16 51°20.057 2°37.353 267.6 4.5 275 22
2006-08-17 08:05:21 51°20.058 2°37.343 268.6 4.4 280 21.8
2006-08-17 08:05:25 51°20.059 2°37.336 269.9 4.2 279 22.3
2006-08-17 08:05:31 51°20.06 2°37.326 272.1 4.1 283 23.1
2006-08-17 08:05:36 51°20.062 2°37.318 274.2 3.9 284 23.2
2006-08-17 08:05:41 51°20.063 2°37.31 276.1 3.9 287 23.6
2006-08-17 08:05:46 51°20.065 2°37.302 278.2 3.8 289 23.4
2006-08-17 08:05:51 51°20.067 2°37.293 279.8 3.9 290 23.9
2006-08-17 08:05:56 51°20.069 2°37.285 280.5 3.9 291 23.4
2006-08-17 08:06:01 51°20.07 2°37.277 280.8 3.8 289 23.7
2006-08-17 08:06:05 51°20.072 2°37.271 281 3.8 291 23.8
2006-08-17 08:06:11 51°20.074 2°37.262 281 3.8 290 23.5
2006-08-17 08:06:16 51°20.076 2°37.254 280.7 3.8 291 23.7
2006-08-17 08:06:21 51°20.078 2°37.246 280.2 3.8 289 23.5
2006-08-17 08:06:25 51°20.079 2°37.24 279.6 3.7 290 23.6
2006-08-17 08:06:31 51°20.081 2°37.23 279.1 3.7 289 23.1
2006-08-17 08:06:36 51°20.083 2°37.223 278.6 3.7 288 23.4
2006-08-17 08:06:41 51°20.084 2°37.215 278 3.7 289 23
2006-08-17 08:06:46 51°20.086 2°37.207 277.8 3.7 290 22.4
2006-08-17 08:06:51 51°20.087 2°37.2 277.4 3.6 285 22.3
2006-08-17 08:06:55 51°20.088 2°37.193 276.5 3.7 286 22.5
2006-08-17 08:07:01 51°20.089 2°37.184 272.7 3.8 280 21.9
2006-08-17 08:07:06 51°20.09 2°37.176 267.8 3.6 275 21.3
2006-08-17 08:07:11 51°20.09 2°37.169 264.3 3.3 276 21.1
2006-08-17 08:07:15 51°20.09 2°37.164 262 3 272 22
2006-08-17 08:07:21 51°20.09 2°37.158 260.5 2.7 273 22.6
2006-08-17 08:07:25 51°20.09 2°37.154 257.7 2.2 271 22.9
2006-08-17 08:07:31 51°20.09 2°37.15 254.9 1.9 272 23.1
2006-08-17 08:07:36 51°20.09 2°37.147 251.1 1.3 272 23.3
2006-08-17 08:07:41 51°20.091 2°37.146 247.1 0.9 278 23.4
2006-08-17 08:07:46 51°20.091 2°37.144 243.1 0.7 300 23.4
2006-08-17 08:07:51 51°20.092 2°37.144 239.1 0.4 323 23.3
2006-08-17 08:07:56 51°20.092 2°37.144 236.6 0.6 348 23.4
2006-08-17 08:08:01 51°20.093 2°37.144 235.1 0.6 14 23.4
2006-08-17 08:08:06 51°20.094 2°37.145 233.7 0.8 15 23.2